Showing default

ANGELS, 44876

Orbit data source: Space-Track

ANGELS, 44876 is a payload satellite owned by CNES (FR) in SSO that was launched on Wed, 18 Dec 2019 UTC via a SOYUZ-ST-A launch vehicle from the French Guiana (FRGUI). Payload-class satellites include a variety of spacecraft equipped with specific instruments for various scientific and technological missions. These include communications satellites like Starlink; space stations such as the ISS; scientific satellites like the Hubble; Earth observation satellites from companies like Planet Labs, Umbra, and HawkEye 360; GPS; miniature CubeSats for education and research; and military/defense satellites.

Loading next visibility...
Identifier
44876, 2019-092D
Orbit
SSO
Country
Flag of FRFR
Related business
Manufacturer
Hemeria
Mission
Non-operational Civil Communications
Bus & Motor
CUBESAT 12U, Unknown motor
Mass
27 kg wet, 27 kg dry
Launch date (UTC)
2019-12-18 (6 years ago)
Launch vehicle
SOYUZ-ST-A
Launch site
French Guiana (FRGUI)
Object type
Payload
Rocket body
Debris
Shape & HBR
Box + 2 Pan, 1.0 m
Radar Cross Section
0.126 m², Medium (>0.1 m² and < 1m²)

Expand to show TLE details & history
Last TLE update: 20 hours ago

TLE from 20 hours ago
0 ANGELS
1 44876U 19092D   25310.08838080  .00080920  00000-0  11692-2 0  9996
2 44876  97.4368 153.2098 0004562 321.4200  38.6728 15.55661462327282
Epoch: 2025-11-06T02:07Z
TLE epoch observation values (Epoch: 2025-11-06T02:07:16.101Z)
Latitude
0.00002°
Longitude
75.84099°
Altitude
400.954 km
Speed
7.671 km/s
True Right ascension
10h 12m 50s
True Declination
0° 00' 00"
Sunlit
Object was in daylight at epoch
Visualization orbit readout
Latitude
Unknown
Longitude
Unknown
Altitude
Unknown
Speed
Unknown
Apparent Right ascension
Unknown
Apparent Declination
Unknown
Sunlit
N/A
Visualization observer readout
Local Sidereal Time
17:48:44
Azimuth
Unknown
Elevation
Unknown
Doppler factor
Unknown
Orbital elements
Apogee altitude
400.241 km
Perigee altitude
394.059 km
Semi-major axis
6,775.287 km
Eccentricity
0.00046
Inclination
97.4368°
RAAN
153.2098°
Arg. of periapsis
321.42°
True anomaly
38.70548°
Mean anomaly
38.6728°
Eccentric anomaly
38.68914°
Mean motion
3.89181 °/min
Orbital period
92.5 mins
BSTAR
0.0011692
Loading maneuver chart data...
Computing Atmospheric mass density...
Loading historical data...
Loading historical data...
Loading historical data...
Loading historical data...
Loading historical data...
Loading historical data...
Loading historical data...

Documentation

Showing up to 5 results
|